Regional Weather Roundup
Issued by NWS Little Rock, AR

Home | Current Version | Previous Version | Graphics & Text | Print | Product List | Glossary On
Versions: 1 2 3 4 5 6 7 8 9 10 11 12 13 14 15 16 17 18 19 20 21 22 23 24 25 26 27 28 29 30 31 32 33 34 35 36 37 38 39 40 41 42 43 44 45 46 47 48 49 50
000
ASUS44 KLZK 051105
RWRLZK

WEATHER ROUNDUP FOR ARKANSAS
NATIONAL WEATHER SERVICE LITTLE ROCK AR
500 AM CST THU MAR 05 2015

NOTE: "FAIR" INDICATES FEW OR NO CLOUDS BELOW 12,000 FEET WITH NO
SIGNIFICANT WEATHER AND/OR OBSTRUCTIONS TO VISIBILITY.

ARZ001-003-010-029-051200-
NORTHWEST ARKANSAS

CITY           SKY/WX    TMP DP  RH WIND       PRES   REMARKS
FAYETTEVILLE   MOCLDY    20  13  74 CALM      30.43R
FORT SMITH     CLOUDY    24  19  81 SW6       30.48R WCI  17
HARRISON       CLOUDY    20  11  68 NW6       30.39R WCI  12
BENTONVILLE    MOCLDY    19  10  68 N3        30.43R
ROGERS         MOCLDY    17  12  80 NW3       30.43R
SILOAM SPGS    PTCLDY    18   9  68 N5        30.44R WCI  11
HIGHFILL       MOCLDY    17  11  77 NW7       30.42R WCI   8
$$

ARZ004-005-016-051200-
NORTH CENTRAL ARKANSAS

CITY           SKY/WX    TMP DP  RH WIND       PRES   REMARKS
BATESVILLE     CLOUDY    21  12  68 NW5       30.42R WCI  15
FLIPPIN        CLOUDY    21  10  63 CALM      30.40R
MTN HOME       CLOUDY    20  13  74 N5        30.39R WCI  13
$$

ARZ040-041-051200-
WEST CENTRAL ARKANSAS

CITY           SKY/WX    TMP DP  RH WIND       PRES   REMARKS
MENA           CLOUDY    27  21  80 CALM      30.42R
MOUNT IDA      LGT SNOW  22  19  89 CALM      30.39R FOG
$$

ARZ009-017-025-026-028-051200-
NORTHEAST ARKANSAS

CITY           SKY/WX    TMP DP  RH WIND       PRES   REMARKS
CORNING        FAIR      23  10  58 N13       30.40R WCI  11
JONESBORO      CLOUDY    21  12  68 N8        30.41R WCI  11
NEWPORT        FLURRIES  22  15  74 N12       30.44R WCI  11
WALNUT RIDGE   MOCLDY    21  10  63 N13       30.41R WCI   9
BLYTHEVILLE    CLOUDY    20  17  88 N15       30.41R FOG     WCI   6
$$

ARZ022-023-033-042-044-051200-
CENTRAL ARKANSAS

CITY           SKY/WX    TMP DP  RH WIND       PRES   REMARKS
LITTLE ROCK    HVY SNOW  22  18  85 N12       30.43R VSB 1/4 WCI  10
N LITTLE ROCK    N/A     20  20  98 N8G17     30.43  WCI  11
JACKSONVILLE   LGT SNOW  21  18  86 N7        30.43R FOG     WCI  13
SEARCY         LGT SNOW  22  17  81 N8        30.44R WCI  12
HOT SPRINGS    LGT SNOW  22  18  85 N5        30.39F FOG     WCI  16
RUSSELLVILLE   CLOUDY    22  19  89 CALM      30.43S
CLINTON        FAIR      25  12  58 CALM      30.43S
$$

ARZ036-051200-
EAST ARKANSAS

CITY           SKY/WX    TMP DP  RH WIND       PRES   REMARKS
WEST MEMPHIS   CLOUDY    20  18  92 N20G28    30.33R FOG     WCI   4
$$

ARZ050-053-066-070-073-051200-
SOUTHWEST ARKANSAS

CITY           SKY/WX    TMP DP  RH WIND       PRES   REMARKS
ARKADELPHIA    LGT SNOW  24  24 100 N7        30.43R FOG     WCI  16
CAMDEN         LGT SNOW  25  21  86 CALM      30.40R VSB 3/4
TEXARKANA      LGT SNOW  26  24  92 N14G22    30.40R FOG     WCI  14
EL DORADO      LGT SNOW  25  21  85 N13G21    30.37R FOG     WCI  14
DE QUEEN       LGT SNOW  27  23  85 N7        30.41R FOG     WCI  19
$$

ARZ056-057-069-051200-
SOUTHEAST ARKANSAS

CITY           SKY/WX    TMP DP  RH WIND       PRES   REMARKS
PINE BLUFF     FOG       22  18  85 N15G24    30.40R VSB 3/4 WCI   9
STUTTGART      CLOUDY    21  18  86 N22       30.39R WCI   5
MONTICELLO     MIX PCPN  24  19  81 N12G21    30.34R WCI  13

$$





USA.gov is the U.S. government's official web portal to all federal, state and local government web resources and services.